Weather History for Hollywood, FL

Change the Weather History Date:

Saturday, February 16, 2013

  Actual Average (KFLL) Record (KFLL)
Temperature  
Mean Temperature 65 °F 71 °F  
Max Temperature 75 °F 78 °F 88 °F (1935)
Min Temperature 55 °F 64 °F 33 °F (1943)
Degree Days  
Heating Degree Days 0 1  
Month to date heating degree days 16  
Since 1 July heating degree days 96  
Cooling Degree Days 0 7  
Month to date cooling degree days 103  
Year to date cooling degree days 273  
Growing Degree Days 15 (Base 50)    
Moisture  
Dew Point 57 °F    
Average Humidity 78    
Maximum Humidity 100    
Minimum Humidity 35    
Precipitation  
Precipitation 0.02 in 0.10 in 4.66 in (1997)
Month to date precipitation 1.83  
Year to date precipitation 5.46  
Snow  
Snow 0.00 in - - ()
Month to date snowfall  
Since 1 July snowfall  
Snow Depth -    
Sea Level Pressure  
Sea Level Pressure 29.97 in    
Wind  
Wind Speed 8 mph (NW)    
Max Wind Speed 22 mph    
Max Gust Speed 31 mph    
Visibility 10 miles    
Events Rain    
T = Trace of Precipitation, MM = Missing Value Source: NWS Daily Summary

Daily Weather History Graph

Daily Weather History Graph

Search for Another Location

Airport:

Trip Planner

Search our weather history database for the weather conditions in past years. The results will help you decide how hot, cold, wet, or windy it might be!

Date:

Astronomy

Feb. 16, 2013 Rise Set
Actual Time 6:55 AM EST 6:14 PM EST
Civil Twilight 6:31 AM EST 6:38 PM EST
Nautical Twilight 6:04 AM EST 7:05 PM EST
Astronomical Twilight 5:37 AM EST 7:32 PM EST
Moon 10:49 AM EST (2/16) No Moon Set
Length of Visible Light 12h 06m
Length of Day
11h 19m
Waxing Crescent, 39% of the Moon is Illuminated
Feb 16
Waxing Crescent
Feb 17
First Quarter
Feb 25
Full
Mar 4
Last Quarter
Mar 11
New

Hourly Weather History & Observations

Time (EST) Temp. Dew Point Humidity Pressure Visibility Wind Dir Wind Speed Gust Speed Precip Events Conditions
12:53 AM 64.9 °F 64.0 °F 97% 29.97 in 10.0 mi NW 5.8 mph - N/A   Mostly Cloudy
1:10 AM 64.4 °F 64.4 °F 100% 29.96 in 10.0 mi WNW 3.5 mph - N/A   Overcast
1:29 AM 64.4 °F 64.4 °F 100% 29.96 in 10.0 mi NW 5.8 mph - N/A   Overcast
1:53 AM 64.9 °F 64.0 °F 97% 29.96 in 10.0 mi NW 8.1 mph - N/A   Overcast
2:17 AM 64.4 °F 62.6 °F 94% 29.95 in 10.0 mi NW 8.1 mph - N/A   Overcast
2:41 AM 64.4 °F 62.6 °F 94% 29.93 in 10.0 mi NNW 5.8 mph - N/A   Overcast
2:53 AM 64.0 °F 63.0 °F 96% 29.93 in 10.0 mi NNW 6.9 mph - N/A   Overcast
3:17 AM 64.4 °F 62.6 °F 94% 29.93 in 10.0 mi NW 6.9 mph - 0.00 in Rain Light Rain
3:53 AM 64.0 °F 62.1 °F 93% 29.92 in 10.0 mi NW 5.8 mph - 0.00 in Rain Light Rain
4:53 AM 64.0 °F 62.1 °F 93% 29.92 in 10.0 mi NW 4.6 mph - 0.01 in   Overcast
5:53 AM 64.0 °F 62.1 °F 93% 29.92 in 10.0 mi NW 4.6 mph - 0.00 in Rain Light Rain
6:53 AM 64.0 °F 62.1 °F 93% 29.94 in 10.0 mi NW 6.9 mph - 0.01 in   Overcast
7:40 AM 64.4 °F 62.6 °F 94% 29.94 in 10.0 mi NW 5.8 mph - N/A   Overcast
7:53 AM 64.0 °F 63.0 °F 96% 29.94 in 10.0 mi NW 6.9 mph - N/A   Mostly Cloudy
8:14 AM 64.4 °F 62.6 °F 94% 29.95 in 10.0 mi NW 5.8 mph - N/A   Mostly Cloudy
8:43 AM 64.4 °F 62.6 °F 94% 29.95 in 10.0 mi NW 6.9 mph - N/A   Mostly Cloudy
8:53 AM 64.9 °F 63.0 °F 93% 29.96 in 10.0 mi NW 9.2 mph - N/A   Mostly Cloudy
9:06 AM 64.4 °F 62.6 °F 94% 29.95 in 10.0 mi NW 8.1 mph - N/A   Mostly Cloudy
9:36 AM 66.2 °F 62.6 °F 88% 29.96 in 10.0 mi WNW 8.1 mph - N/A   Mostly Cloudy
9:53 AM 66.9 °F 63.0 °F 87% 29.97 in 10.0 mi NW 5.8 mph - N/A   Mostly Cloudy
10:21 AM 68.0 °F 60.8 °F 78% 29.97 in 10.0 mi NW 8.1 mph - N/A   Mostly Cloudy
10:32 AM 68.0 °F 60.8 °F 78% 29.97 in 10.0 mi NW 10.4 mph - N/A   Mostly Cloudy
10:53 AM 69.1 °F 61.0 °F 75% 29.97 in 10.0 mi NW 10.4 mph - N/A   Mostly Cloudy
11:53 AM 73.0 °F 60.1 °F 64% 29.96 in 10.0 mi WNW 15.0 mph 20.7 mph N/A   Partly Cloudy
12:53 PM 73.9 °F 57.0 °F 55% 29.94 in 10.0 mi West 15.0 mph - N/A   Clear
1:53 PM 75.0 °F 51.1 °F 43% 29.92 in 10.0 mi West 17.3 mph 23.0 mph N/A   Partly Cloudy
2:53 PM 73.9 °F 46.0 °F 37% 29.92 in 10.0 mi West 17.3 mph 28.8 mph N/A   Clear
3:53 PM 73.0 °F 44.1 °F 35% 29.93 in 10.0 mi WNW 16.1 mph 23.0 mph N/A   Clear
4:53 PM 70.0 °F 46.0 °F 42% 29.95 in 10.0 mi WNW 21.9 mph 31.1 mph N/A   Clear
5:53 PM 66.9 °F 45.0 °F 45% 29.98 in 10.0 mi WNW 18.4 mph - N/A   Clear
6:53 PM 64.9 °F 48.0 °F 54% 29.99 in 10.0 mi WNW 11.5 mph - N/A   Clear
7:53 PM 63.0 °F 48.9 °F 60% 30.02 in 10.0 mi WNW 15.0 mph 23.0 mph N/A   Clear
8:53 PM 60.1 °F 48.0 °F 64% 30.06 in 10.0 mi NW 18.4 mph 28.8 mph N/A   Clear
9:53 PM 57.9 °F 46.0 °F 65% 30.09 in 10.0 mi NW 12.7 mph 24.2 mph N/A   Clear
10:53 PM 55.9 °F 45.0 °F 67% 30.11 in 10.0 mi NW 17.3 mph 25.3 mph N/A   Clear
11:53 PM 55.0 °F 44.1 °F 67% 30.12 in 10.0 mi NW 15.0 mph - N/A   Clear